User: anonymous   Login
Location: Campillo
(40.8621°N, 4.2488°W)
Time: 08:09:10
(UTC+00:00)
Language:

Cosmos 1633 Rocket - Orbit

View from above orbital plane
View from above orbital plane
View from above satellite
View from above satellite

Ground track
Ground track

The orbit data is extracted from the following two-line orbital elements,

1 15593U 85020B   21216.70201031  .00000072  00000-0  56344-5 0  9990
2 15593  82.5383 289.9389 0013217  93.5009 266.7718 14.84439677947136
Epoch (UTC): 04 August 2021 16:50:53
Eccentricity: 0.0013217
inclination: 82.5383°
perigee height: 606 km
apogee height: 624 km
right ascension of ascending node: 289.9389°
argument of perigee: 93.5009°
revolutions per day: 14.84439677
mean anomaly at epoch: 266.7718°
orbit number at epoch: 94713

The dashed part of the orbit path shows where the satellite is in the earth's shadow,  

DLR